Location: Auckland
(36.8670°S, 174.7670°E)
Time: 02:22:22
(UTC+12:00)

NOSS 2-1 (E) - Pass Details

Date: 26 April 2019
Orbit: 471 x 1733 km, 63.3° (Epoch: 14 May)

Event Time Altitude Azimuth Distance (km) Brightness Sun altitude
Rises 20:45:22 0° 218° (SW) 4,815 8.7 -37.2°
Reaches altitude 10° 20:52:07 10° 186° (S) 3,532 7.5 -38.5°
Maximum altitude 20:54:26 11° 170° (S) 3,315 7.3 -38.9°
Enters shadow 20:54:42 11° 168° (SSE) 3,301 7.2 -39.0°
